Time,TemperatureF,DewpointF,PressureIn,WindDirection,WindDirectionDegrees,WindSpeedMPH,WindSpeedGustMPH,Humidity,HourlyPrecipIn,Conditions,Clouds,dailyrainin,SolarRadiationWatts/m^2,SoftwareType,DateUTC
2013-05-12 00:21:00,60.0,56.0,30.03,SSE,162,6.0,12.0,88,0.00,,,0.00,0.000000,,2013-05-12 07:21:00,
2013-05-12 00:32:00,60.0,56.0,30.03,SSE,162,6.0,12.0,88,0.00,,,0.00,0.000000,,2013-05-12 07:32:00,
2013-05-12 00:42:00,60.0,56.0,30.03,SSE,162,6.0,12.0,88,0.00,,,0.00,0.000000,,2013-05-12 07:42:00,
2013-05-12 00:52:00,60.0,56.0,30.03,SSE,162,6.0,12.0,88,0.00,,,0.00,0.000000,,2013-05-12 07:52:00,
2013-05-12 01:21:00,59.0,58.0,30.05,SE,129,2.0,13.0,95,0.00,,,0.00,0.000000,,2013-05-12 08:21:00,
2013-05-12 01:32:00,59.0,58.0,30.05,SE,129,2.0,13.0,95,0.00,,,0.00,0.000000,,2013-05-12 08:32:00,
2013-05-12 01:41:00,59.0,58.0,30.05,SE,129,2.0,13.0,95,0.00,,,0.00,0.000000,,2013-05-12 08:41:00,
2013-05-12 01:52:00,59.0,58.0,30.05,SE,129,2.0,13.0,95,0.00,,,0.00,0.000000,,2013-05-12 08:52:00,
2013-05-12 02:21:00,58.0,57.0,30.04,NNW,344,1.0,7.0,96,0.00,,,0.00,0.000000,,2013-05-12 09:21:00,
2013-05-12 02:33:00,58.0,57.0,30.04,NNW,344,1.0,7.0,96,0.00,,,0.00,0.000000,,2013-05-12 09:33:00,
2013-05-12 02:42:00,58.0,57.0,30.04,NNW,344,1.0,7.0,96,0.00,,,0.00,0.000000,,2013-05-12 09:42:00,
2013-05-12 02:52:00,58.0,57.0,30.04,NNW,344,1.0,7.0,96,0.00,,,0.00,0.000000,,2013-05-12 09:52:00,
2013-05-12 03:22:00,57.0,56.0,30.03,North,4,1.0,2.0,95,0.00,,,0.00,0.000000,,2013-05-12 10:22:00,
2013-05-12 03:33:00,57.0,56.0,30.03,North,4,1.0,2.0,95,0.00,,,0.00,0.000000,,2013-05-12 10:33:00,
2013-05-12 03:42:00,57.0,56.0,30.03,North,4,1.0,2.0,95,0.00,,,0.00,0.000000,,2013-05-12 10:42:00,
2013-05-12 03:52:00,57.0,56.0,30.03,North,4,1.0,2.0,95,0.00,,,0.00,0.000000,,2013-05-12 10:52:00,
2013-05-12 04:21:00,54.0,53.0,30.03,WNW,287,1.0,3.0,95,0.00,,,0.00,0.000000,,2013-05-12 11:21:00,
2013-05-12 04:32:00,54.0,53.0,30.03,WNW,287,1.0,3.0,95,0.00,,,0.00,0.000000,,2013-05-12 11:32:00,
2013-05-12 04:42:00,54.0,53.0,30.03,WNW,287,1.0,3.0,95,0.00,,,0.00,0.000000,,2013-05-12 11:42:00,
2013-05-12 04:51:00,54.0,53.0,30.03,WNW,287,1.0,3.0,95,0.00,,,0.00,0.000000,,2013-05-12 11:51:00,
2013-05-12 05:21:00,53.0,51.0,30.01,WSW,256,1.0,3.0,93,0.00,,,0.00,0.000000,,2013-05-12 12:21:00,
2013-05-12 05:32:00,53.0,51.0,30.01,WSW,256,1.0,3.0,93,0.00,,,0.00,0.000000,,2013-05-12 12:32:00,
2013-05-12 05:41:00,53.0,51.0,30.01,WSW,256,1.0,3.0,93,0.00,,,0.00,0.000000,,2013-05-12 12:41:00,
2013-05-12 05:51:00,53.0,51.0,30.01,WSW,256,1.0,3.0,93,0.00,,,0.00,0.000000,,2013-05-12 12:51:00,
2013-05-12 06:41:00,52.0,50.0,30.03,NW,322,1.0,2.0,94,0.00,,,0.00,0.000000,,2013-05-12 13:41:00,
2013-05-12 06:52:00,52.0,50.0,30.03,NW,322,1.0,2.0,94,0.00,,,0.00,0.000000,,2013-05-12 13:52:00,
2013-05-12 07:21:00,55.0,52.0,30.04,NW,322,1.0,3.0,91,0.00,,,0.00,20.000000,,2013-05-12 14:21:00,
2013-05-12 07:31:00,55.0,52.0,30.04,NW,322,1.0,3.0,91,0.00,,,0.00,20.000000,,2013-05-12 14:31:00,
2013-05-12 07:42:00,55.0,52.0,30.04,NW,322,1.0,3.0,91,0.00,,,0.00,20.000000,,2013-05-12 14:42:00,
2013-05-12 07:51:00,55.0,52.0,30.04,NW,322,1.0,3.0,91,0.00,,,0.00,20.000000,,2013-05-12 14:51:00,
2013-05-12 08:21:00,64.0,56.0,30.04,NE,55,2.0,3.0,74,0.00,,,0.00,62.000000,,2013-05-12 15:21:00,
2013-05-12 08:33:00,64.0,56.0,30.04,NE,55,2.0,3.0,74,0.00,,,0.00,62.000000,,2013-05-12 15:33:00,
2013-05-12 08:42:00,64.0,56.0,30.04,NE,55,2.0,3.0,74,0.00,,,0.00,62.000000,,2013-05-12 15:42:00,
2013-05-12 08:52:00,64.0,56.0,30.04,NE,55,2.0,3.0,74,0.00,,,0.00,62.000000,,2013-05-12 15:52:00,
2013-05-12 09:23:00,79.0,59.0,30.04,WSW,243,1.0,8.0,51,0.00,,,0.00,438.000000,,2013-05-12 16:23:00,
2013-05-12 09:32:00,79.0,59.0,30.04,WSW,243,1.0,8.0,51,0.00,,,0.00,438.000000,,2013-05-12 16:32:00,
2013-05-12 09:42:00,79.0,59.0,30.04,WSW,243,1.0,8.0,51,0.00,,,0.00,438.000000,,2013-05-12 16:42:00,
2013-05-12 09:52:00,79.0,59.0,30.04,WSW,243,1.0,8.0,51,0.00,,,0.00,438.000000,,2013-05-12 16:52:00,
2013-05-12 10:22:00,88.0,60.0,30.03,WNW,284,4.0,9.0,39,0.00,,,0.00,680.000000,,2013-05-12 17:22:00,
2013-05-12 10:32:00,88.0,60.0,30.03,WNW,284,4.0,9.0,39,0.00,,,0.00,680.000000,,2013-05-12 17:32:00,
2013-05-12 11:22:00,88.0,53.0,30.01,South,174,13.0,15.0,30,0.00,,,0.00,858.000000,,2013-05-12 18:22:00,
2013-05-12 11:31:00,88.0,53.0,30.01,South,174,13.0,15.0,30,0.00,,,0.00,858.000000,,2013-05-12 18:31:00,
2013-05-12 11:41:00,88.0,53.0,30.01,South,174,13.0,15.0,30,0.00,,,0.00,858.000000,,2013-05-12 18:41:00,
2013-05-12 11:51:00,88.0,53.0,30.01,South,174,13.0,15.0,30,0.00,,,0.00,858.000000,,2013-05-12 18:51:00,
2013-05-12 12:21:00,89.0,53.0,30.00,South,182,18.0,32.0,29,0.00,,,0.00,988.000000,,2013-05-12 19:21:00,
2013-05-12 12:32:00,89.0,53.0,30.00,South,182,18.0,32.0,29,0.00,,,0.00,988.000000,,2013-05-12 19:32:00,
2013-05-12 12:42:00,89.0,53.0,30.00,South,182,18.0,32.0,29,0.00,,,0.00,988.000000,,2013-05-12 19:42:00,
2013-05-12 12:52:00,89.0,53.0,30.00,South,182,18.0,32.0,29,0.00,,,0.00,988.000000,,2013-05-12 19:52:00,
2013-05-12 13:21:00,91.0,53.0,30.00,South,176,19.0,31.0,28,0.00,,,0.00,1075.000000,,2013-05-12 20:21:00,
2013-05-12 13:32:00,91.0,53.0,30.00,South,176,19.0,31.0,28,0.00,,,0.00,1075.000000,,2013-05-12 20:32:00,
2013-05-12 13:42:00,91.0,53.0,30.00,South,176,19.0,31.0,28,0.00,,,0.00,1075.000000,,2013-05-12 20:42:00,
2013-05-12 13:51:00,91.0,53.0,30.00,South,176,19.0,31.0,28,0.00,,,0.00,1075.000000,,2013-05-12 20:51:00,
2013-05-12 14:21:00,93.0,57.0,29.98,SSE,166,15.0,29.0,30,0.00,,,0.00,1068.000000,,2013-05-12 21:21:00,
2013-05-12 14:33:00,93.0,57.0,29.98,SSE,166,15.0,29.0,30,0.00,,,0.00,1068.000000,,2013-05-12 21:33:00,
2013-05-12 14:42:00,93.0,57.0,29.98,SSE,166,15.0,29.0,30,0.00,,,0.00,1068.000000,,2013-05-12 21:42:00,
2013-05-12 14:52:00,93.0,57.0,29.98,SSE,166,15.0,29.0,30,0.00,,,0.00,1068.000000,,2013-05-12 21:52:00,
2013-05-12 15:23:00,92.0,58.0,29.96,South,172,16.0,26.0,32,0.00,,,0.00,984.000000,,2013-05-12 22:23:00,
2013-05-12 15:32:00,92.0,58.0,29.96,South,172,16.0,26.0,32,0.00,,,0.00,984.000000,,2013-05-12 22:32:00,
2013-05-12 15:42:00,92.0,58.0,29.96,South,172,16.0,26.0,32,0.00,,,0.00,984.000000,,2013-05-12 22:42:00,
2013-05-12 15:52:00,92.0,58.0,29.96,South,172,16.0,26.0,32,0.00,,,0.00,984.000000,,2013-05-12 22:52:00,
2013-05-12 17:21:00,102.0,42.0,29.92,NW,319,11.0,18.0,13,-99.99,,,0.00,671.000000,,2013-05-13 00:21:00,
2013-05-12 18:22:00,96.0,43.0,29.91,NW,323,10.0,22.0,16,-99.99,,,0.00,463.000000,,2013-05-13 01:22:00,
2013-05-12 18:31:00,96.0,43.0,29.91,NW,323,10.0,22.0,16,-99.99,,,0.00,463.000000,,2013-05-13 01:31:00,
2013-05-12 19:21:00,93.0,42.0,29.91,NNW,329,8.0,20.0,17,-99.99,,,0.00,241.000000,,2013-05-13 02:21:00,
2013-05-12 19:41:00,93.0,42.0,29.91,NNW,329,8.0,20.0,17,-99.99,,,0.00,241.000000,,2013-05-13 02:41:00,
2013-05-12 19:51:00,93.0,42.0,29.91,NNW,329,8.0,20.0,17,-99.99,,,0.00,241.000000,,2013-05-13 02:51:00,
2013-05-12 20:21:00,86.0,47.0,29.91,NE,34,3.0,17.0,26,-99.99,,,0.00,42.000000,,2013-05-13 03:21:00,
2013-05-12 20:32:00,86.0,47.0,29.91,NE,34,3.0,17.0,26,-99.99,,,0.00,42.000000,,2013-05-13 03:32:00,
2013-05-12 20:42:00,86.0,47.0,29.91,NE,34,3.0,17.0,26,-99.99,,,0.00,42.000000,,2013-05-13 03:42:00,
2013-05-12 20:52:00,86.0,47.0,29.91,NE,34,3.0,17.0,26,-99.99,,,0.00,42.000000,,2013-05-13 03:52:00,
2013-05-12 21:23:00,79.0,47.0,29.92,West,276,3.0,10.0,32,0.00,,,0.00,0.000000,,2013-05-13 04:23:00,
2013-05-12 21:32:00,79.0,47.0,29.92,West,276,3.0,10.0,32,0.00,,,0.00,0.000000,,2013-05-13 04:32:00,
2013-05-12 21:41:00,79.0,47.0,29.92,West,276,3.0,10.0,32,0.00,,,0.00,0.000000,,2013-05-13 04:41:00,
2013-05-12 21:52:00,79.0,47.0,29.92,West,276,3.0,10.0,32,0.00,,,0.00,0.000000,,2013-05-13 04:52:00,
2013-05-12 22:21:00,76.0,49.0,29.93,NNW,340,3.0,5.0,39,0.00,,,0.00,0.000000,,2013-05-13 05:21:00,
2013-05-12 22:32:00,76.0,49.0,29.93,NNW,340,3.0,5.0,39,0.00,,,0.00,0.000000,,2013-05-13 05:32:00,
2013-05-12 22:42:00,76.0,49.0,29.93,NNW,340,3.0,5.0,39,0.00,,,0.00,0.000000,,2013-05-13 05:42:00,
2013-05-12 22:51:00,76.0,49.0,29.93,NNW,340,3.0,5.0,39,0.00,,,0.00,0.000000,,2013-05-13 05:51:00,
2013-05-12 23:21:00,70.0,49.0,29.93,SSW,195,2.0,6.0,48,0.00,,,0.00,0.000000,,2013-05-13 06:21:00,
2013-05-12 23:31:00,70.0,49.0,29.93,SSW,195,2.0,6.0,48,0.00,,,0.00,0.000000,,2013-05-13 06:31:00,
2013-05-12 23:42:00,70.0,49.0,29.93,SSW,195,2.0,6.0,48,0.00,,,0.00,0.000000,,2013-05-13 06:42:00,
2013-05-12 23:52:00,70.0,49.0,29.93,SSW,195,2.0,6.0,48,0.00,,,0.00,0.000000,,2013-05-13 06:52:00,